N81RB YSSY-YWLM

Flight info

Callsign N81RB
Flight time 0h 27m
Altitude 17000
Route TESAT H252 WLM
Aircraft C700/M-SBDGHM1RWXY/LB2

Departure

Time 2026-04-19 04:28
Airport Sydney Kingsford Smith International Airport (YSSY)

Arrival

Time 2026-04-19 04:56
Airport Newcastle Airport (YWLM)
Time Latitude Longitude Altitude Speed Heading
2026-04-19 03:48 -33.93048 151.16753 15 ft 0 kts 257°
2026-04-19 04:14 -33.93036 151.16748 16 ft 4 kts 22°
2026-04-19 04:15 -33.93029 151.16772 16 ft 0 kts 77°
2026-04-19 04:15 -33.93029 151.16774 16 ft 2 kts 77°
2026-04-19 04:15 -33.93016 151.16858 15 ft 18 kts 81°
2026-04-19 04:15 -33.93041 151.16905 15 ft 8 kts 158°
2026-04-19 04:16 -33.93146 151.16939 15 ft 23 kts 166°
2026-04-19 04:16 -33.93230 151.16961 15 ft 6 kts 168°
2026-04-19 04:16 -33.93306 151.17021 17 ft 20 kts 137°
2026-04-19 04:16 -33.93361 151.17066 15 ft 0 kts 162°
2026-04-19 04:17 -33.93369 151.17069 15 ft 6 kts 165°
2026-04-19 04:17 -33.93382 151.17073 17 ft 2 kts 165°
2026-04-19 04:17 -33.93406 151.17080 16 ft 4 kts 166°
2026-04-19 04:18 -33.93434 151.17092 14 ft 0 kts 152°
2026-04-19 04:18 -33.93439 151.17127 11 ft 13 kts 90°
2026-04-19 04:18 -33.93417 151.17305 11 ft 29 kts 77°
2026-04-19 04:18 -33.93411 151.17336 12 ft 1 kts 77°
2026-04-19 04:19 -33.93410 151.17341 12 ft 0 kts 78°
2026-04-19 04:19 -33.93402 151.17390 13 ft 13 kts 78°
2026-04-19 04:19 -33.93397 151.17416 13 ft 5 kts 78°
2026-04-19 04:19 -33.93378 151.17500 18 ft 16 kts 77°
2026-04-19 04:20 -33.93441 151.17597 24 ft 17 kts 182°
2026-04-19 04:20 -33.93608 151.17617 23 ft 31 kts 164°
2026-04-19 04:20 -33.93723 151.17683 18 ft 21 kts 159°
2026-04-19 04:20 -33.93842 151.17733 14 ft 21 kts 155°
2026-04-19 04:21 -33.93988 151.17807 17 ft 10 kts 168°
2026-04-19 04:21 -33.94099 151.17836 19 ft 11 kts 150°
2026-04-19 04:21 -33.94179 151.17856 19 ft 18 kts 171°
2026-04-19 04:21 -33.94348 151.17899 19 ft 31 kts 167°
2026-04-19 04:22 -33.94515 151.17890 18 ft 16 kts 183°
2026-04-19 04:22 -33.94668 151.17923 18 ft 28 kts 168°
2026-04-19 04:22 -33.94902 151.17983 17 ft 40 kts 168°
2026-04-19 04:22 -33.95066 151.18038 20 ft 17 kts 161°
2026-04-19 04:23 -33.95140 151.18060 20 ft 14 kts 156°
2026-04-19 04:23 -33.95157 151.18221 19 ft 28 kts 76°
2026-04-19 04:23 -33.95100 151.18488 20 ft 32 kts 75°
2026-04-19 04:23 -33.95065 151.18725 17 ft 10 kts 78°
2026-04-19 04:24 -33.95064 151.18729 17 ft 0 kts 79°
2026-04-19 04:24 -33.95063 151.18743 17 ft 7 kts 85°
2026-04-19 04:24 -33.95062 151.18757 20 ft 0 kts 89°
2026-04-19 04:27 -33.95066 151.18810 17 ft 2 kts 99°
2026-04-19 04:27 -33.95099 151.18862 17 ft 17 kts 148°
2026-04-19 04:27 -33.95201 151.18895 16 ft 0 kts 167°
2026-04-19 04:28 -33.95241 151.18906 15 ft 19 kts 168°
2026-04-19 04:28 -33.95633 151.19008 19 ft 103 kts 168°
2026-04-19 04:28 -33.96590 151.19255 320 ft 163 kts 167°
2026-04-19 04:28 -33.97775 151.19634 1493 ft 188 kts 160°
2026-04-19 04:29 -33.98780 151.20744 2771 ft 213 kts 122°
2026-04-19 04:29 -33.99495 151.22396 4237 ft 230 kts 125°
2026-04-19 04:29 -34.00452 151.24032 5731 ft 252 kts 133°
2026-04-19 04:29 -34.01858 151.25680 6106 ft 318 kts 146°
2026-04-19 04:30 -34.03710 151.27340 6111 ft 335 kts 146°
2026-04-19 04:30 -34.05489 151.29091 6104 ft 326 kts 143°
2026-04-19 04:30 -34.07194 151.30833 6091 ft 318 kts 143°
2026-04-19 04:30 -34.08652 151.32816 6087 ft 318 kts 127°
2026-04-19 04:31 -34.09613 151.35254 6082 ft 319 kts 112°
2026-04-19 04:31 -34.09986 151.37846 6079 ft 320 kts 96°
2026-04-19 04:31 -34.09761 151.40557 6076 ft 320 kts 79°
2026-04-19 04:31 -34.08966 151.43009 6073 ft 319 kts 63°
2026-04-19 04:32 -34.07634 151.45147 6184 ft 312 kts 46°
2026-04-19 04:32 -34.05989 151.46690 6305 ft 295 kts 30°
2026-04-19 04:32 -34.04180 151.47640 6510 ft 272 kts 15°
2026-04-19 04:32 -34.02441 151.48188 6932 ft 245 kts 11°
2026-04-19 04:33 -34.00845 151.48696 7395 ft 229 kts 11°
2026-04-19 04:33 -33.99370 151.49177 7850 ft 213 kts
2026-04-19 04:33 -33.97977 151.49609 8312 ft 201 kts
2026-04-19 04:33 -33.96548 151.50063 8793 ft 234 kts 11°
2026-04-19 04:34 -33.94883 151.50691 9334 ft 254 kts 14°
2026-04-19 04:34 -33.93190 151.51259 9909 ft 254 kts
2026-04-19 04:34 -33.91373 151.51778 10429 ft 285 kts 11°
2026-04-19 04:34 -33.89354 151.52440 10968 ft 315 kts 12°
2026-04-19 04:35 -33.87114 151.52769 11565 ft 338 kts 353°
2026-04-19 04:35 -33.84747 151.52233 12187 ft 357 kts 335°
2026-04-19 04:35 -33.82582 151.50694 12838 ft 368 kts 310°
2026-04-19 04:35 -33.80711 151.48485 13381 ft 394 kts 317°
2026-04-19 04:36 -33.78153 151.47017 13851 ft 415 kts 340°
2026-04-19 04:36 -33.75399 151.46792 14255 ft 383 kts
2026-04-19 04:36 -33.72989 151.47775 14613 ft 352 kts 28°
2026-04-19 04:36 -33.71291 151.49674 14969 ft 319 kts 54°
2026-04-19 04:37 -33.69865 151.51484 15504 ft 286 kts 26°
2026-04-19 04:37 -33.68060 151.52035 16056 ft 255 kts 356°
2026-04-19 04:37 -33.66359 151.52170 16499 ft 237 kts 358°
2026-04-19 04:37 -33.64797 151.52663 16859 ft 230 kts 13°
2026-04-19 04:38 -33.63337 151.53411 17317 ft 234 kts 15°
2026-04-19 04:38 -33.61758 151.54303 17828 ft 267 kts 21°
2026-04-19 04:38 -33.59971 151.55294 18081 ft 310 kts 18°
2026-04-19 04:38 -33.57773 151.56258 17867 ft 363 kts 15°
2026-04-19 04:39 -33.55374 151.57309 17407 ft 371 kts 18°
2026-04-19 04:39 -33.52967 151.58510 16940 ft 377 kts 19°
2026-04-19 04:39 -33.50537 151.59733 16485 ft 381 kts 19°
2026-04-19 04:39 -33.48061 151.60905 16018 ft 384 kts 18°
2026-04-19 04:40 -33.45599 151.62066 15546 ft 374 kts 18°
2026-04-19 04:40 -33.43226 151.63220 15068 ft 362 kts 19°
2026-04-19 04:40 -33.40929 151.64337 14594 ft 352 kts 19°
2026-04-19 04:40 -33.38688 151.65411 14133 ft 344 kts 18°
2026-04-19 04:41 -33.36529 151.66451 14050 ft 324 kts 18°
2026-04-19 04:41 -33.34504 151.67430 14045 ft 304 kts 18°
2026-04-19 04:41 -33.32600 151.68347 14042 ft 286 kts 18°
2026-04-19 04:41 -33.30803 151.69219 14042 ft 271 kts 19°
2026-04-19 04:42 -33.29101 151.70050 14041 ft 258 kts 18°
2026-04-19 04:42 -33.27477 151.70814 14041 ft 245 kts 17°
2026-04-19 04:42 -33.25922 151.71541 14034 ft 234 kts 16°
2026-04-19 04:42 -33.24440 151.72249 13876 ft 231 kts 16°
2026-04-19 04:43 -33.22881 151.73001 13289 ft 250 kts 18°
2026-04-19 04:43 -33.21160 151.73424 12757 ft 256 kts 354°
2026-04-19 04:43 -33.19385 151.73151 12238 ft 259 kts 336°
2026-04-19 04:43 -33.17743 151.72271 11732 ft 261 kts 325°
2026-04-19 04:44 -33.16102 151.71278 11209 ft 268 kts 327°
2026-04-19 04:44 -33.14408 151.70292 10691 ft 273 kts 327°
2026-04-19 04:44 -33.12694 151.69273 10192 ft 277 kts 327°
2026-04-19 04:44 -33.10958 151.68237 9656 ft 280 kts 327°
2026-04-19 04:45 -33.09208 151.67198 9101 ft 282 kts 328°
2026-04-19 04:45 -33.07444 151.66153 8552 ft 283 kts 328°
2026-04-19 04:45 -33.05678 151.65106 8079 ft 282 kts 328°
2026-04-19 04:45 -33.03974 151.64107 8054 ft 263 kts 328°
2026-04-19 04:46 -33.02375 151.63161 7784 ft 258 kts 328°
2026-04-19 04:46 -33.00768 151.62198 7276 ft 264 kts 328°
2026-04-19 04:46 -32.99111 151.61218 6764 ft 268 kts 329°
2026-04-19 04:46 -32.97431 151.60227 6251 ft 270 kts 329°
2026-04-19 04:47 -32.95767 151.59246 6052 ft 260 kts 329°
2026-04-19 04:47 -32.94191 151.58323 6049 ft 251 kts 329°
2026-04-19 04:47 -32.92597 151.57404 6046 ft 258 kts 330°
2026-04-19 04:47 -32.90964 151.56450 6046 ft 263 kts 332°
2026-04-19 04:48 -32.89172 151.55881 6040 ft 272 kts 349°
2026-04-19 04:48 -32.87289 151.55548 6043 ft 274 kts 347°
2026-04-19 04:48 -32.85404 151.55139 6055 ft 276 kts 347°
2026-04-19 04:48 -32.83502 151.54753 6055 ft 278 kts 348°
2026-04-19 04:49 -32.81579 151.54384 6052 ft 280 kts 348°
2026-04-19 04:49 -32.79651 151.54007 6052 ft 281 kts 348°
2026-04-19 04:49 -32.77707 151.53698 6052 ft 284 kts 356°
2026-04-19 04:49 -32.76400 151.53826 6046 ft 287 kts
2026-04-19 04:50 -32.74485 151.54519 5999 ft 290 kts 24°
2026-04-19 04:50 -32.72778 151.55823 5870 ft 295 kts 40°
2026-04-19 04:50 -32.71413 151.57651 5739 ft 298 kts 58°
2026-04-19 04:50 -32.70462 151.59865 5460 ft 305 kts 68°
2026-04-19 04:51 -32.69595 151.62195 5181 ft 312 kts 68°
2026-04-19 04:51 -32.68685 151.64564 4895 ft 318 kts 67°
2026-04-19 04:51 -32.67784 151.66895 4599 ft 302 kts 67°
2026-04-19 04:51 -32.67036 151.69147 4285 ft 285 kts 79°
2026-04-19 04:52 -32.67120 151.71395 3951 ft 267 kts 109°
2026-04-19 04:52 -32.67971 151.73264 3631 ft 253 kts 134°
2026-04-19 04:52 -32.69316 151.74466 3314 ft 226 kts 156°
2026-04-19 04:52 -32.70659 151.75050 2986 ft 188 kts 161°
2026-04-19 04:53 -32.71856 151.75585 2647 ft 176 kts 161°
2026-04-19 04:53 -32.72934 151.76063 2305 ft 162 kts 161°
2026-04-19 04:53 -32.73956 151.76510 1978 ft 149 kts 160°
2026-04-19 04:53 -32.74763 151.77034 1683 ft 120 kts 148°
2026-04-19 04:54 -32.75389 151.77653 1344 ft 121 kts 140°
2026-04-19 04:54 -32.75954 151.78430 1057 ft 124 kts 133°
2026-04-19 04:54 -32.76503 151.79221 943 ft 131 kts 132°
2026-04-19 04:54 -32.77084 151.80074 808 ft 135 kts 137°
2026-04-19 04:55 -32.77688 151.80884 527 ft 127 kts 137°
2026-04-19 04:55 -32.78265 151.81641 338 ft 122 kts 133°
2026-04-19 04:55 -32.78834 151.82432 173 ft 128 kts 133°
2026-04-19 04:55 -32.79375 151.83196 42 ft 111 kts 135°
2026-04-19 04:56 -32.79772 151.83734 24 ft 40 kts 133°
2026-04-19 04:56 -32.79828 151.83814 24 ft 1 kts 112°
2026-04-19 04:56 -32.79815 151.83922 24 ft 23 kts 57°
2026-04-19 04:56 -32.79692 151.84126 26 ft 33 kts 56°
2026-04-19 04:57 -32.79597 151.84172 25 ft 21 kts 356°
2026-04-19 04:57 -32.79505 151.84148 26 ft 7 kts 206°
2026-04-19 04:57 -32.79557 151.84183 25 ft 15 kts 176°
2026-04-19 04:57 -32.79572 151.84176 26 ft 0 kts 243°
2026-04-19 04:58 -32.79581 151.84162 24 ft 0 kts 233°